Location: Byszew
(52.1813°N, 19.2693°E)
Time: 23:04:14
(UTC+00:00)

Cosmos 2322 Rocket - Pass Details

Date: 26 June 2021
Orbit: 833 x 850 km, 71.0° (Epoch: 26 July)

Event Time Altitude Azimuth Distance (km) Brightness Sun altitude
Rises 22:49:49 0° 313° (NW) 3,425 6.0 -14.5°
Reaches altitude 10° 22:54:21 10° 346° (NNW) 2,486 5.9 -14.5°
Maximum altitude 22:56:11 11° 6° (N) 2,379 5.9 -14.5°
Drops below altitude 10° 22:58:02 10° 25° (NNE) 2,483 5.8 -14.4°
Sets 23:02:32 0° 58° (ENE) 3,413 5.9 -14.4°
